EW3281 Weather Reports


time (UTC)temp
C
wind
direction
speed
KPH
gust
KPH
rain 1hr
cm
rain 24hr
cm
rain mn
cm
humidity
%
barometer
mb
20260906142526 17 206 0.0 0.0 0.00 0.13 0.13 90 1013.6
20260906142027 17 172 0.0 0.0 0.00 0.13 0.13 89 1013.6
20260906141529 16 340 0.0 0.0 0.00 0.13 0.13 90 1013.6
20260906141026 16 238 0.0 0.0 0.00 0.13 0.13 91 1013.6
20260906140527 16 16 0.0 0.0 0.00 0.13 0.13 91 1013.6
20260906140031 16 231 0.0 0.0 0.00 0.13 0.13 92 1013.7
20260906135528 16 217 0.0 0.0 0.00 0.13 0.13 92 1013.6
20260906134526 16 200 0.0 0.0 0.00 0.13 0.13 92 1013.5
20260906134028 16 149 0.0 0.0 0.00 0.13 0.13 93 1013.5
20260906133525 16 207 0.0 0.0 0.00 0.13 0.13 93 1013.5
20260906133029 16 210 0.0 0.0 0.00 0.13 0.13 93 1013.5
20260906132527 16 262 0.0 0.0 0.00 0.13 0.13 93 1013.5
20260906132025 16 229 0.0 0.0 0.00 0.13 0.13 94 1013.5
20260906131536 16 110 0.0 0.0 0.00 0.13 0.13 94 1013.4
20260906131023 16 210 0.0 0.0 0.00 0.13 0.13 94 1013.5
20260906130523 16 217 0.0 0.0 0.00 0.13 0.13 94 1013.5
20260906130023 16 197 0.0 0.0 0.00 0.13 0.13 95 1013.5
20260906125522 16 285 0.0 0.0 0.00 0.13 0.13 94 1013.4
20260906124521 15 242 0.0 0.0 0.00 0.13 0.13 95 1013.3
20260906124022 15 172 0.0 0.0 0.00 0.13 0.13 95 1013.3
20260906123521 15 200 0.0 0.0 0.00 0.13 0.13 95 1013.3
20260906123020 15 199 0.0 0.0 0.00 0.13 0.13 95 1013.3
20260906122520 15 198 0.0 0.0 0.00 0.13 0.13 95 1013.3
20260906122019 15 188 0.0 0.0 0.00 0.13 0.13 95 1013.2
20260906121520 15 229 0.0 0.0 0.00 0.13 0.13 96 1013.2
20260906121019 15 229 0.0 0.0 0.00 0.13 0.13 95 1013.2
20260906120519 15 229 0.0 0.0 0.00 0.13 0.13 96 1013.1
20260906120018 15 229 0.0 0.0 0.00 0.13 0.13 95 1013.1
20260906115520 15 229 0.0 0.0 0.03 0.13 0.13 95 1013.1
20260906114518 15 229 0.0 0.0 0.03 0.13 0.13 95 1013.0
20260906114018 15 138 0.0 0.0 0.03 0.13 0.13 95 1013.0
20260906113518 15 139 0.0 0.0 0.05 0.13 0.13 95 1013.0
20260906113021 15 138 0.0 0.0 0.10 0.13 0.13 95 1012.9
20260906112520 15 138 0.0 0.0 0.13 0.13 0.13 95 1012.8
20260906112015 15 138 0.0 0.0 0.13 0.13 0.13 94 1012.7
20260906111515 15 138 0.0 0.0 0.13 0.13 0.13 94 1012.6
20260906111013 15 138 0.0 0.0 0.13 0.13 0.13 94 1012.6
20260906110513 15 138 0.0 0.0 0.13 0.13 0.13 94 1012.5
20260906110012 15 138 0.0 0.0 0.13 0.13 0.13 94 1012.4
20260906105511 15 138 0.0 0.0 0.13 0.13 0.13 94 1012.3
20260906104515 15 138 0.0 0.0 0.10 0.10 0.10 94 1012.2
20260906104009 15 143 0.0 0.0 0.10 0.10 0.10 94 1012.2
20260906103508 15 143 0.0 0.0 0.10 0.10 0.10 94 1012.2
20260906103008 15 11 0.0 0.0 0.08 0.08 0.08 94 1012.2
20260906102507 16 352 0.0 0.0 0.03 0.03 0.03 94 1012.2
20260906102007 16 349 0.0 0.0 0.00 0.00 0.00 94 1012.1
20260906101504 16 238 0.0 0.0 0.00 0.00 0.00 94 1012.0
20260906101004 16 228 0.0 0.0 0.00 0.00 0.00 94 1011.9
20260906100504 16 348 0.0 0.0 0.00 0.00 0.00 94 1011.9
20260906100002 16 348 0.0 0.0 0.00 0.00 0.00 94 1011.8
20260906095502 16 351 0.0 0.0 0.00 0.00 0.00 94 1011.7
20260906094506 16 198 0.0 0.0 0.00 0.00 0.00 94 1011.5
20260906094002 16 181 0.0 0.0 0.00 0.00 0.00 94 1011.4
20260906093503 16 181 0.0 0.0 0.00 0.00 0.00 94 1011.3
20260906093100 16 179 0.0 0.0 0.00 0.00 0.00 94 1011.3
20260906092601 16 178 0.0 0.0 0.00 0.00 0.00 94 1011.3
20260906092059 16 178 0.0 0.0 0.00 0.00 0.00 94 1011.2
20260906091605 16 178 0.0 0.0 0.00 0.00 0.00 94 1011.1
20260906091059 16 178 0.0 0.0 0.00 0.00 0.00 94 1011.1
20260906090558 16 176 0.0 0.0 0.00 0.00 0.00 94 1011.1
20260906090059 16 176 0.0 0.0 0.00 0.00 0.00 94 1011.1
20260906085557 16 176 0.0 0.0 0.00 0.00 0.00 94 1011.1
20260906085158 16 176 0.0 0.0 0.00 0.00 0.00 94 1011.0
20260906084556 16 176 0.0 0.0 0.00 0.00 0.00 94 1010.9
20260906084057 16 176 0.0 0.0 0.00 0.00 0.00 94 1010.9
20260906083556 16 176 0.0 0.0 0.00 0.00 0.00 94 1010.9
20260906083057 16 168 0.0 0.0 0.00 0.00 0.00 94 1010.9
20260906082555 16 351 0.0 0.0 0.00 0.00 0.00 94 1010.8
20260906082058 16 351 0.0 0.0 0.00 0.00 0.00 94 1010.8
20260906081558 16 351 0.0 0.0 0.00 0.00 0.00 94 1010.7
20260906081054 16 351 0.0 0.0 0.00 0.00 0.00 94 1010.6
20260906080555 16 351 0.0 0.0 0.00 0.00 0.00 94 1010.5
20260906080107 16 351 0.0 0.0 0.00 0.00 0.00 94 1010.5
20260906075554 16 278 0.0 0.0 0.00 0.00 0.00 94 1010.5
20260906075156 16 268 0.0 0.0 0.00 0.00 0.00 94 1010.5
20260906074559 16 268 0.0 0.0 0.00 0.00 0.00 94 1010.5
20260906074055 16 268 0.0 0.0 0.00 0.00 0.00 94 1010.5
20260906073554 16 268 0.0 0.0 0.00 0.00 0.00 94 1010.7
20260906073054 16 268 0.0 0.0 0.00 0.00 0.00 94 1010.7
20260906072554 16 268 0.0 0.0 0.00 0.00 0.00 94 1010.7
20260906072055 16 268 0.0 0.0 0.00 0.00 0.00 94 1010.7
20260906071600 16 268 0.0 0.0 0.00 0.00 0.00 94 1010.7
20260906071052 16 194 0.0 0.0 0.00 0.00 0.00 93 1010.6
20260906070553 16 179 0.0 0.0 0.00 0.00 0.00 93 1010.6
20260906070052 16 178 0.0 0.0 0.00 0.00 0.00 93 1010.7
20260906065553 16 178 0.0 0.0 0.00 0.00 0.00 93 1010.7
20260906065153 16 178 0.0 0.0 0.00 0.00 0.00 93 1010.6
20260906064552 16 178 0.0 0.0 0.00 0.00 0.00 93 1010.6
20260906064054 16 178 0.0 0.0 0.00 0.00 0.00 93 1010.6
20260906063555 16 178 0.0 0.0 0.00 0.00 0.00 92 1010.6
20260906063057 16 179 0.0 0.0 0.00 0.00 0.00 92 1010.6
20260906062555 16 178 0.0 0.0 0.00 0.00 0.00 92 1010.5
20260906062051 16 178 0.0 0.0 0.00 0.00 0.00 92 1010.5
20260906061556 16 179 0.0 0.0 0.00 0.00 0.00 92 1010.6
20260906061051 16 178 0.0 0.0 0.00 0.00 0.00 92 1010.7
20260906060552 16 178 0.0 0.0 0.00 0.00 0.00 92 1010.7
20260906060051 16 178 0.0 0.0 0.00 0.00 0.00 92 1010.7
20260906055551 16 178 0.0 0.0 0.00 0.00 0.00 92 1010.7
20260906055154 16 178 0.0 0.0 0.00 0.00 0.00 92 1010.7
20260906054551 16 178 0.0 0.0 0.00 0.00 0.00 92 1010.7
20260906054051 16 178 0.0 0.0 0.00 0.00 0.00 92 1010.7
20260906053550 16 178 0.0 0.0 0.00 0.00 0.00 92 1010.8
20260906053053 16 178 0.0 0.0 0.00 0.00 0.00 93 1010.9
20260906052550 16 297 0.0 0.0 0.00 0.00 0.00 93 1010.9
20260906052050 16 297 0.0 0.0 0.00 0.00 0.00 93 1011.0
20260906051602 16 297 0.0 0.0 0.00 0.00 0.00 93 1011.0
20260906051050 16 297 0.0 0.0 0.00 0.00 0.00 93 1011.1
20260906050549 16 297 0.0 0.0 0.00 0.00 0.00 93 1011.1
20260906050049 16 297 0.0 0.0 0.00 0.00 0.00 93 1011.1
20260906045551 16 297 0.0 0.0 0.00 0.00 0.00 93 1011.0
20260906045148 16 297 0.0 0.0 0.00 0.00 0.00 93 1011.0
20260906044549 16 297 0.0 0.0 0.00 0.00 0.00 93 1011.0
20260906044049 16 297 0.0 0.0 0.00 0.00 0.00 93 1011.0
20260906043548 16 297 0.0 0.0 0.00 0.00 0.00 93 1011.0
20260906043050 16 297 0.0 0.0 0.00 0.00 0.00 93 1011.0
20260906042547 16 297 0.0 0.0 0.00 0.00 0.00 92 1011.0
20260906042047 16 297 0.0 0.0 0.00 0.00 0.00 92 1010.9
20260906041554 16 297 0.0 0.0 0.00 0.00 0.00 92 1010.9
20260906041048 16 297 0.0 0.0 0.00 0.00 0.00 92 1010.9
20260906040547 16 297 0.0 0.0 0.00 0.00 0.00 92 1010.9
20260906040047 16 297 0.0 0.0 0.00 0.00 0.00 91 1010.9
20260906035546 16 297 0.0 0.0 0.00 0.00 0.00 91 1010.8
20260906035146 16 297 0.0 0.0 0.00 0.00 0.00 90 1010.8
20260906034548 16 297 0.0 0.0 0.00 0.00 0.00 90 1010.7
20260906034044 16 297 0.0 0.0 0.00 0.00 0.00 90 1010.8
20260906033543 16 297 0.0 0.0 0.00 0.00 0.00 90 1010.8
20260906033045 16 297 0.0 0.0 0.00 0.00 0.00 89 1010.7
20260906032543 16 297 0.0 0.0 0.00 0.00 0.00 89 1010.7
20260906032042 16 297 0.0 0.0 0.00 0.00 0.00 89 1010.6
20260906031541 16 297 0.0 0.0 0.00 0.00 0.00 88 1010.5
20260906031040 16 297 0.0 0.0 0.00 0.00 0.00 88 1010.6
20260906030540 17 297 0.0 0.0 0.00 0.00 0.00 88 1010.7
20260906030039 17 297 0.0 0.0 0.00 0.00 0.00 87 1010.7
20260906025539 17 297 0.0 0.0 0.00 0.00 0.00 87 1010.6
20260906025139 17 297 0.0 0.0 0.00 0.00 0.00 87 1010.7
20260906024546 17 297 0.0 0.0 0.00 0.00 0.00 87 1010.7
20260906024038 17 297 0.0 0.0 0.00 0.00 0.00 87 1010.6
20260906023538 17 297 0.0 0.0 0.00 0.00 0.00 87 1010.6
20260906023038 17 297 0.0 0.0 0.00 0.00 0.00 87 1010.5
20260906022537 17 297 0.0 0.0 0.00 0.00 0.00 87 1010.7
20260906022040 17 297 0.0 0.0 0.00 0.00 0.00 87 1010.7
20260906021538 17 297 0.0 0.0 0.00 0.00 0.00 86 1010.7
20260906021036 17 297 0.0 0.0 0.00 0.00 0.00 86 1010.7
20260906020537 17 333 0.0 0.0 0.00 0.00 0.00 86 1010.7
20260906020045 17 333 0.0 0.0 0.00 0.00 0.00 86 1010.7
20260906015537 17 333 0.0 0.0 0.00 0.00 0.00 86 1010.7
20260906015138 17 333 0.0 0.0 0.00 0.00 0.00 86 1010.6
20260906014550 17 333 0.0 0.0 0.00 0.00 0.00 86 1010.6
20260906014038 17 333 0.0 0.0 0.00 0.00 0.00 86 1010.6
20260906013537 17 333 0.0 0.0 0.00 0.00 0.00 86 1010.7
20260906013039 17 333 0.0 0.0 0.00 0.00 0.00 86 1010.8
20260906012536 17 333 0.0 0.0 0.00 0.00 0.00 86 1010.8
20260906012036 17 333 0.0 0.0 0.00 0.00 0.00 86 1010.8
20260906011540 17 333 0.0 0.0 0.00 0.00 0.00 86 1010.7
20260906011035 17 333 0.0 0.0 0.00 0.00 0.00 86 1010.7
20260906010535 17 333 0.0 0.0 0.00 0.00 0.00 86 1010.6
20260906010035 17 333 0.0 0.0 0.00 0.00 0.00 85 1010.6
20260906005533 17 333 0.0 0.0 0.00 0.00 0.00 85 1010.5
20260906005136 17 333 0.0 0.0 0.00 0.00 0.00 85 1010.4
20260906004540 17 333 0.0 0.0 0.00 0.00 0.00 85 1010.4
20260906004033 17 333 0.0 0.0 0.00 0.00 0.00 86 1010.4
20260906003534 17 333 0.0 0.0 0.00 0.00 0.00 85 1010.4
20260906003046 17 333 0.0 0.0 0.00 0.00 0.00 85 1010.4
20260906002531 17 333 0.0 0.0 0.00 0.00 0.00 85 1010.3
20260906002031 17 333 0.0 0.0 0.00 0.00 0.00 86 1010.2
20260906001531 17 333 0.0 0.0 0.00 0.00 0.00 86 1010.2
20260906001030 17 333 0.0 0.0 0.00 0.00 0.00 86 1010.2
20260906000530 17 333 0.0 0.0 0.00 0.00 0.00 86 1010.2
20260906000029 17 333 0.0 0.0 0.00 0.00 0.00 86 1010.1
20260905235529 17 333 0.0 0.0 0.00 0.00 0.00 85 1010.0
20260905235127 17 333 0.0 0.0 0.00 0.00 0.00 84 1009.8
20260905234529 17 333 0.0 0.0 0.00 0.00 0.00 84 1009.8
20260905234033 18 333 0.0 0.0 0.00 0.00 0.00 84 1009.8
20260905233529 18 333 0.0 0.0 0.00 0.00 0.00 83 1009.9
20260905233029 18 333 0.0 0.0 0.00 0.00 0.00 82 1009.8
20260905232531 18 333 0.0 0.0 0.00 0.00 0.00 82 1009.8
20260905232026 18 333 0.0 0.0 0.00 0.00 0.00 82 1009.8
20260905231530 18 333 0.0 0.0 0.00 0.00 0.00 82 1009.9
20260905231124 18 333 0.0 0.0 0.00 0.00 0.00 81 1009.8
20260905230524 18 333 0.0 0.0 0.00 0.00 0.00 81 1009.8
20260905230024 18 333 0.0 0.0 0.00 0.00 0.00 81 1009.7
20260905225526 18 333 0.0 0.0 0.00 0.00 0.00 80 1009.7
20260905225123 19 333 0.0 0.0 0.00 0.00 0.00 80 1009.7
20260905224526 19 333 0.0 0.0 0.00 0.00 0.00 80 1009.7
20260905224018 19 333 0.0 0.0 0.00 0.00 0.00 79 1009.7
20260905223517 19 333 0.0 0.0 0.00 0.00 0.00 79 1009.7
20260905223017 19 333 0.0 0.0 0.00 0.00 0.00 79 1009.7
20260905222519 20 334 0.0 0.0 0.00 0.00 0.00 78 1009.7
20260905222014 20 333 0.0 0.0 0.00 0.00 0.00 78 1009.6
20260905221514 20 335 0.0 0.0 0.00 0.00 0.00 78 1009.6
20260905221013 20 334 0.0 0.0 0.00 0.00 0.00 77 1009.5
20260905220513 20 4 0.0 0.0 0.00 0.00 0.00 77 1009.4
20260905220015 20 348 0.0 0.0 0.00 0.00 0.00 78 1009.3
20260905215510 20 348 0.0 0.0 0.00 0.00 0.00 77 1009.3
20260905215109 20 348 0.0 0.0 0.00 0.00 0.00 76 1009.0
20260905214509 20 337 0.0 0.0 0.00 0.00 0.00 76 1008.9
20260905214009 20 335 0.0 0.0 0.00 0.00 0.00 77 1008.8
20260905213508 21 339 0.0 0.0 0.00 0.00 0.00 76 1008.7
20260905213007 21 110 0.0 0.0 0.00 0.00 0.00 76 1008.6
20260905212506 21 3 0.0 0.0 0.00 0.00 0.00 76 1008.6
20260905212006 21 3 0.0 0.0 0.00 0.00 0.00 76 1008.5
20260905211506 21 10 0.0 0.0 0.00 0.00 0.00 75 1008.5
20260905211008 21 8 0.0 0.0 0.00 0.00 0.00 76 1008.6
20260905210505 21 5 0.0 0.0 0.00 0.00 0.00 75 1008.5
20260905210010 21 6 0.0 0.0 0.00 0.00 0.00 74 1008.3
20260905205505 22 6 0.0 0.0 0.00 0.00 0.00 74 1008.3
20260905205104 22 14 0.0 0.0 0.00 0.00 0.00 73 1008.1
20260905204503 22 15 0.0 0.0 0.00 0.00 0.00 73 1008.2
20260905204007 22 13 0.0 0.0 0.00 0.00 0.00 73 1008.2
20260905203503 22 345 0.0 0.0 0.00 0.00 0.00 73 1008.1
20260905203003 22 321 0.0 0.0 0.00 0.00 0.00 72 1008.2
20260905202503 22 8 0.0 0.0 0.00 0.00 0.00 72 1008.1
20260905202002 22 11 0.0 0.0 0.00 0.00 0.00 70 1008.1
20260905201503 23 195 0.0 0.0 0.00 0.00 0.00 70 1008.0
20260905201002 23 320 0.0 0.0 0.00 0.00 0.00 70 1007.9
20260905200502 23 321 0.0 0.0 0.00 0.00 0.00 70 1007.9
20260905200002 23 347 0.0 0.0 0.00 0.00 0.00 69 1007.9
20260905195502 23 1 0.0 0.0 0.00 0.00 0.00 68 1007.8
20260905195101 22 248 0.0 0.0 0.00 0.00 0.00 74 1007.9
20260905194600 22 320 0.0 0.0 0.00 0.00 0.00 74 1007.9
20260905194100 22 347 0.0 0.0 0.00 0.00 0.00 72 1007.9
20260905193559 22 345 0.0 0.0 0.00 0.00 0.00 74 1007.9
20260905193109 22 359 0.0 0.0 0.00 0.00 0.00 74 1008.0
20260905192559 22 4 0.0 0.0 0.00 0.00 0.00 74 1007.9
20260905192102 22 335 0.0 0.0 0.00 0.00 0.00 73 1008.0
20260905191600 22 340 0.0 0.0 0.00 0.00 0.00 73 1007.9
20260905191058 22 272 0.0 0.0 0.00 0.00 0.00 73 1007.9
20260905190558 22 2 0.0 0.0 0.00 0.00 0.00 73 1008.0
20260905190101 22 352 0.0 0.0 0.00 0.00 0.00 74 1008.0
20260905185557 22 358 0.0 0.0 0.00 0.00 0.00 73 1008.1
20260905185058 22 257 0.0 0.0 0.00 0.00 0.00 74 1008.1
20260905184559 22 153 0.0 0.0 0.00 0.00 0.00 75 1008.0
20260905184059 21 282 0.0 0.0 0.00 0.00 0.00 75 1008.0
20260905183559 21 252 0.0 0.0 0.00 0.00 0.00 74 1008.1
20260905183100 21 344 0.0 0.0 0.00 0.00 0.00 75 1008.1
20260905182559 21 330 0.0 0.0 0.00 0.00 0.00 78 1008.1
20260905182058 21 209 0.0 0.0 0.00 0.00 0.00 77 1008.2
20260905181602 21 331 0.0 0.0 0.00 0.00 0.00 77 1008.3
20260905181057 21 333 0.0 0.0 0.00 0.00 0.00 79 1008.3
20260905180600 21 320 0.0 0.0 0.00 0.00 0.00 78 1008.3
20260905180100 21 320 0.0 0.0 0.00 0.00 0.00 77 1008.3
20260905175555 21 319 0.0 0.0 0.00 0.00 0.00 77 1008.3
20260905175054 22 287 0.0 0.0 0.00 0.00 0.00 75 1008.1
20260905174555 22 287 0.0 0.0 0.00 0.00 0.00 75 1008.1
20260905174053 22 352 0.0 0.0 0.00 0.00 0.00 75 1008.1
20260905173553 22 345 0.0 0.0 0.00 0.00 0.00 74 1007.9
20260905173052 22 345 0.0 0.0 0.00 0.00 0.00 74 1007.9
20260905172553 22 345 0.0 0.0 0.00 0.00 0.00 73 1007.9
20260905172053 22 341 0.0 0.0 0.00 0.00 0.00 74 1007.9
20260905171552 21 348 0.0 0.0 0.00 0.00 0.00 76 1007.8
20260905171053 21 347 0.0 0.0 0.00 0.00 0.00 75 1007.8
20260905170552 21 334 0.0 0.0 0.00 0.00 0.00 74 1007.8
20260905170057 22 339 0.0 0.0 0.00 0.00 0.00 72 1007.8
20260905165549 22 352 0.0 0.0 0.00 0.00 0.00 72 1007.7
20260905165053 22 274 0.0 0.0 0.00 0.00 0.00 72 1007.5
20260905164550 22 219 0.0 0.0 0.00 0.00 0.00 73 1007.5
20260905164049 22 212 0.0 0.0 0.00 0.00 0.00 74 1007.5
20260905163549 22 197 0.0 0.0 0.00 0.00 0.00 74 1007.6
20260905163049 22 342 0.0 0.0 0.00 0.00 0.00 73 1007.5
20260905162551 22 340 0.0 0.0 0.00 0.00 0.00 74 1007.5
20260905162047 22 338 0.0 0.0 0.00 0.00 0.00 72 1007.5
20260905161547 22 231 0.0 0.0 0.00 0.00 0.00 71 1007.5
20260905161048 23 251 0.0 0.0 0.00 0.00 0.00 69 1007.3
20260905160547 23 345 0.0 0.0 0.00 0.00 0.00 69 1007.3
20260905160050 23 215 0.0 0.0 0.00 0.00 0.00 71 1007.3
20260905155546 23 342 0.0 0.0 0.00 0.00 0.00 71 1007.3
20260905155046 22 333 0.0 0.0 0.00 0.00 0.00 71 1007.3
20260905154549 22 346 0.0 0.0 0.00 0.00 0.00 71 1007.3
20260905154043 22 160 0.0 0.0 0.00 0.00 0.00 76 1007.4
20260905153546 22 347 0.0 0.0 0.00 0.00 0.00 74 1007.4
20260905153041 22 342 0.0 0.0 0.00 0.00 0.00 74 1007.4
20260905152541 22 345 0.0 0.0 0.00 0.00 0.00 72 1007.3
20260905152041 22 342 0.0 0.0 0.00 0.00 0.00 72 1007.3
20260905151543 22 331 0.0 0.0 0.00 0.00 0.00 72 1007.2
20260905151040 22 335 0.0 0.0 0.00 0.00 0.00 73 1007.3
20260905150541 22 299 0.0 0.0 0.00 0.00 0.00 73 1007.2
20260905150047 22 336 0.0 0.0 0.00 0.00 0.00 73 1007.2
20260905145542 22 6 0.0 0.0 0.00 0.00 0.00 74 1007.2
20260905145040 22 340 0.0 0.0 0.00 0.00 0.00 75 1007.2
20260905144547 22 340 0.0 0.0 0.00 0.00 0.00 75 1007.2
20260905144044 22 4 0.0 0.0 0.00 0.00 0.00 76 1007.3
20260905143540 21 328 0.0 0.0 0.00 0.00 0.00 77 1007.3
20260905143049 21 203 0.0 0.0 0.00 0.00 0.00 77 1007.4